Home   Weather   Santorini   Past weeks

Flag for Greece Past Weather in Santorini, Greece — Yesterday and Last 2 Weeks

Now
70 °F

Sunny.


Feels Like: 70 °F
Forecast: 63 / 68 °F
Wind: 10 mph from Southeast

Location: Santorini Island

Current Time: Apr 30, 2017 at 6:00:06 pm

Latest Report: Apr 30, 2017 at 5:20 pm


Visibility: 10 mi

Pressure: 29.74 "Hg

Humidity: 69%

Dew Point: 59 °F

Location of SantoriniLocation

Past Weather in Santorini — Graph

°F

Santorini Temperature Yesterday

Maximum temperature yesterday: 77 °F (at 11:50 am)
Minimum temperature yesterday: 57 °F (at 4:20 am)
Average temperature yesterday: 68 °F

High & Low Weather Summary for the Past Weeks

 TemperatureHumidityPressure
High77 °F (Apr 29, 11:50 am)94% (Apr 18, 5:50 am)30.21 "Hg (Apr 18, 5:50 am)
Low50 °F (Apr 22, 11:50 pm)20% (Apr 26, 2:50 pm)29.71 "Hg (Apr 30, 4:50 pm)
Average62 °F65%30.00 "Hg
* Reported Apr 15 4:50 pm — Apr 30 4:50 pm, Santorini, Weather by CustomWeather, © 2017

Note: Actual official high and low records may vary slightly from our data, if they occured in-between our weather recording intervals... More about our weather records

Advertising

Santorini Weather History for the Previous 24 Hours

Scroll right to see more
 ConditionsComfort  
Time TempWeatherWind HumidityBarometerVisibility
4:50 pm
Sun, Apr 30
70 °FSunny.13 mph69%29.71 "Hg10 mi
4:20 pm72 °FSunny.16 mph65%29.74 "Hg10 mi
3:50 pm70 °FSunny.14 mph69%29.74 "Hg10 mi
3:20 pm70 °FSunny.13 mph69%29.74 "Hg10 mi
2:50 pm72 °FSunny.13 mph65%29.74 "Hg10 mi
2:20 pm70 °FPassing clouds.8 mph69%29.77 "HgN/A
1:50 pm72 °FPassing clouds.6 mph65%29.77 "HgN/A
1:20 pm70 °FSunny.3 mph69%29.77 "Hg10 mi
12:50 pm72 °FPassing clouds.6 mph65%29.80 "HgN/A
12:20 pm72 °FPassing clouds.8 mph61%29.80 "HgN/A
11:50 am72 °FSunny.3 mph61%29.80 "Hg10 mi
11:20 am72 °FPassing clouds.6 mph65%29.80 "HgN/A
10:50 am70 °FSunny.3 mph64%29.80 "Hg10 mi
10:20 am70 °FPassing clouds.5 mph69%29.80 "HgN/A
9:50 am68 °FPassing clouds.6 mph73%29.80 "HgN/A
9:20 am68 °FSunny.9 mph73%29.80 "Hg10 mi
8:50 am68 °FPassing clouds.7 mph69%29.80 "HgN/A
8:20 am66 °FSunny.3 mph78%29.80 "Hg10 mi
7:50 am66 °FSunny.No wind73%29.80 "Hg10 mi
7:20 am66 °FSunny.3 mph64%29.80 "Hg10 mi
6:50 am66 °FSunny.7 mph64%29.80 "Hg10 mi
6:20 am63 °FClear.No wind77%29.80 "Hg10 mi
5:50 am63 °FClear.No wind77%29.80 "Hg10 mi
5:20 am64 °FClear.No wind78%29.80 "Hg10 mi
4:50 am63 °FClear.No wind73%29.80 "Hg10 mi
4:20 am63 °FClear.No wind73%29.83 "Hg10 mi
12:20 am66 °FClear.6 mph68%29.86 "Hg10 mi
11:50 pm
Sat, Apr 29
66 °FClear.6 mph68%29.86 "Hg10 mi
11:20 pm66 °FClear.7 mph56%29.86 "Hg10 mi
10:20 pm64 °FClear.5 mph68%29.89 "Hg10 mi
9:50 pm64 °FClear.5 mph83%29.86 "Hg10 mi
9:20 pm66 °FClear.5 mph83%29.86 "Hg10 mi
8:50 pm66 °FClear.No wind83%29.86 "Hg10 mi
8:20 pm66 °FClear.No wind88%29.86 "Hg10 mi
7:50 pm66 °FSunny.3 mph88%29.89 "Hg10 mi
7:20 pm68 °FSunny.6 mph78%29.89 "Hg10 mi
6:50 pm70 °FSunny.6 mph73%29.89 "Hg10 mi
6:20 pm73 °FSunny.7 mph57%29.89 "Hg10 mi
Weather by CustomWeather, © 2017

See weather overviewHow to use our weather pages